Simultaneous Nadir Overpasses (SNOs) Predictions

Prediction of SNOs between NOAA-20 and LANDSAT-8 Satellite Orbit:

Table of predicted SNOs for the next 14.0 days since TLE Epoch: 12/29/2018
Index Date (NOAA-20) Time (NOAA-20) Lat,Lon (NOAA-20) SZA (NOAA-20 ) Date (LANDSAT-8) Time (LANDSAT-8) Lat,Lon (LANDSAT-8) SZA (LANDSAT-8 ) Distance(km) Time Diff (sec)
1 12/31/2018 06:32:17 -70.60,-102.62 86.34 12/31/2018 06:33:27 -70.51,-101.38 86.47 47.04 70
2 12/31/2018 07:22:52 70.01, 65.61 93.05 12/31/2018 07:23:01 70.03, 65.56 93.06 2.44 9
3 12/31/2018 08:13:34 -69.92,-126.93 87.05 12/31/2018 08:12:31 -69.92,-126.96 87.05 0.99 63
4 01/02/2019 22:49:04 -70.11, 13.92 87.07 01/02/2019 22:50:02 -70.13, 13.95 87.05 2.95 58
5 01/02/2019 23:39:48 70.00,-178.60 92.82 01/02/2019 23:39:30 69.97,-178.64 92.79 3.28 18
6 01/03/2019 00:30:19 -69.32, -10.29 87.89 01/03/2019 00:29:09 -69.37, -11.83 87.80 60.66 70
7 01/05/2019 15:06:01 -70.09, 129.71 87.35 01/05/2019 15:06:32 -70.08, 129.74 87.38 2.13 31
8 01/05/2019 15:56:45 69.98, -62.81 92.54 01/05/2019 15:55:59 69.96, -62.77 92.52 2.79 46
9 01/08/2019 06:32:18 70.29, 77.86 92.54 01/08/2019 06:33:30 70.23, 78.21 92.46 14.68 72
10 01/08/2019 07:22:57 -70.02,-114.42 87.75 01/08/2019 07:23:02 -70.01,-114.46 87.76 1.98 5
11 01/08/2019 08:13:41 69.92, 53.05 92.15 01/08/2019 08:12:29 69.90, 53.02 92.13 2.26 72
12 01/10/2019 22:49:12 70.12,-166.11 91.99 01/10/2019 22:50:01 70.11,-166.09 91.97 1.81 49
13 01/10/2019 23:39:54 -70.01, 1.37 88.13 01/10/2019 23:39:31 -70.00, 1.40 88.14 1.51 23




NCC Satellite Simultaneous Nadir Overpasses (SNOs) Prediction Service
